| time (UTC) | temp C | wind direction | speed KPH | gust KPH | rain 1hr cm | rain 24hr cm | rain mn cm | humidity % | barometer mb |
| 20260504175515 | 21 | 227 | 9.7 | 35.4 | 0.00 | 0.00 | 0.00 | 28 | 1010.3 |
| 20260504173319 | 21 | 239 | 6.4 | 37.0 | 0.00 | 0.00 | 0.00 | 29 | 1010.6 |
| 20260504172305 | 21 | 232 | 11.3 | 37.0 | 0.00 | 0.00 | 0.00 | 28 | 1010.6 |
| 20260504171249 | 21 | 234 | 6.4 | 37.0 | 0.00 | 0.00 | 0.00 | 30 | 1010.6 |
| 20260504170303 | 20 | 261 | 12.9 | 37.0 | 0.00 | 0.00 | 0.00 | 26 | 1010.9 |
| 20260504160231 | 20 | 184 | 11.3 | 38.6 | 0.00 | 0.00 | 0.00 | 26 | 1011.6 |
| 20260504150110 | 18 | 207 | 12.9 | 38.6 | 0.00 | 0.00 | 0.00 | 30 | 1012.3 |
| 20260504141109 | 17 | 186 | 14.5 | 38.6 | 0.00 | 0.00 | 0.00 | 29 | 1012.5 |
| 20260504130722 | 15 | 244 | 6.4 | 22.5 | 0.00 | 0.00 | 0.00 | 39 | 1013.1 |
| 20260504081033 | 3 | 316 | 0.0 | 0.0 | 0.00 | 0.00 | 0.00 | 75 | 1012.6 |
| 20260504050452 | 3 | 305 | 0.0 | 0.0 | 0.00 | 0.00 | 0.00 | 68 | 1012.1 |
| 20260504045510 | 4 | 305 | 0.0 | 0.0 | 0.00 | 0.00 | 0.00 | 67 | 1012.2 |
| 20260504044452 | 4 | 305 | 0.0 | 3.2 | 0.00 | 0.00 | 0.00 | 66 | 1012.2 |
| 20260504043451 | 4 | 305 | 0.0 | 0.0 | 0.00 | 0.00 | 0.00 | 64 | 1012.1 |
| 20260504041348 | 5 | 305 | 0.0 | 0.0 | 0.00 | 0.00 | 0.00 | 64 | 1012.1 |
| 20260504035234 | 5 | 305 | 0.0 | 0.0 | 0.00 | 0.00 | 0.00 | 61 | 1012.0 |
| 20260504033108 | 5 | 305 | 0.0 | 0.0 | 0.00 | 0.00 | 0.00 | 60 | 1011.9 |
| 20260504024722 | 6 | 305 | 0.0 | 0.0 | 0.00 | 0.00 | 0.00 | 57 | 1011.8 |
| 20260504023736 | 6 | 305 | 0.0 | 0.0 | 0.00 | 0.00 | 0.00 | 57 | 1011.8 |
| 20260504022742 | 6 | 305 | 0.0 | 0.0 | 0.00 | 0.00 | 0.00 | 55 | 1011.8 |
| 20260504021758 | 7 | 305 | 0.0 | 0.0 | 0.00 | 0.00 | 0.00 | 54 | 1011.9 |
| 20260504020820 | 7 | 304 | 0.0 | 0.0 | 0.00 | 0.00 | 0.00 | 54 | 1011.8 |
| 20260504015820 | 7 | 305 | 0.0 | 0.0 | 0.00 | 0.00 | 0.00 | 52 | 1011.8 |
| 20260504014757 | 7 | 305 | 0.0 | 0.0 | 0.00 | 0.00 | 0.00 | 54 | 1011.7 |
| 20260504013822 | 8 | 305 | 0.0 | 0.0 | 0.00 | 0.00 | 0.00 | 50 | 1011.8 |
| 20260504012842 | 8 | 305 | 0.0 | 0.0 | 0.00 | 0.00 | 0.00 | 50 | 1011.6 |
| 20260504011854 | 8 | 305 | 0.0 | 0.0 | 0.00 | 0.00 | 0.00 | 46 | 1011.4 |
| 20260504005825 | 10 | 305 | 0.0 | 0.0 | 0.00 | 0.00 | 0.00 | 44 | 1011.0 |
| 20260504004813 | 10 | 304 | 0.0 | 0.0 | 0.00 | 0.00 | 0.00 | 41 | 1010.9 |
| 20260504001529 | 11 | 304 | 0.0 | 0.0 | 0.00 | 0.00 | 0.00 | 36 | 1010.5 |
| 20260504000528 | 11 | 304 | 0.0 | 0.0 | 0.00 | 0.00 | 0.00 | 34 | 1010.4 |
| 20260503235514 | 11 | 304 | 0.0 | 0.0 | 0.00 | 0.00 | 0.00 | 29 | 1010.2 |
| 20260503233402 | 12 | 304 | 0.0 | 1.6 | 0.00 | 0.00 | 0.00 | 28 | 1010.0 |
| 20260503232410 | 12 | 283 | 1.6 | 17.7 | 0.00 | 0.00 | 0.00 | 28 | 1009.9 |
| 20260503230252 | 12 | 303 | 0.0 | 14.5 | 0.00 | 0.00 | 0.00 | 28 | 1009.8 |
| 20260503225252 | 12 | 254 | 1.6 | 19.3 | 0.00 | 0.00 | 0.00 | 29 | 1009.7 |
| 20260503224311 | 12 | 331 | 4.8 | 22.5 | 0.00 | 0.00 | 0.00 | 27 | 1009.6 |
| 20260503223335 | 12 | 338 | 6.4 | 22.5 | 0.00 | 0.00 | 0.00 | 28 | 1009.6 |
| 20260503221225 | 12 | 303 | 4.8 | 20.9 | 0.00 | 0.00 | 0.00 | 29 | 1009.5 |
| 20260503220155 | 13 | 284 | 4.8 | 22.5 | 0.00 | 0.00 | 0.00 | 28 | 1009.5 |
| 20260503214107 | 13 | 301 | 6.4 | 37.0 | 0.00 | 0.00 | 0.00 | 27 | 1009.6 |
| 20260503213116 | 13 | 291 | 6.4 | 25.7 | 0.00 | 0.00 | 0.00 | 27 | 1009.6 |
| 20260503212108 | 13 | 265 | 6.4 | 30.6 | 0.00 | 0.00 | 0.00 | 28 | 1009.5 |
| 20260503211056 | 13 | 269 | 6.4 | 37.0 | 0.00 | 0.00 | 0.00 | 26 | 1009.6 |
| 20260503205054 | 13 | 259 | 6.4 | 41.8 | 0.00 | 0.00 | 0.00 | 28 | 1009.4 |
| 20260503204053 | 13 | 324 | 6.4 | 41.8 | 0.00 | 0.00 | 0.00 | 28 | 1009.4 |
| 20260503203058 | 13 | 294 | 9.7 | 38.6 | 0.00 | 0.00 | 0.00 | 29 | 1009.5 |
| 20260503202111 | 13 | 274 | 6.4 | 35.4 | 0.00 | 0.00 | 0.00 | 28 | 1009.6 |
| 20260503201124 | 13 | 353 | 9.7 | 35.4 | 0.00 | 0.00 | 0.00 | 26 | 1009.5 |
| 20260503200149 | 13 | 306 | 6.4 | 32.2 | 0.00 | 0.00 | 0.00 | 30 | 1009.6 |
| 20260503195210 | 14 | 324 | 6.4 | 35.4 | 0.00 | 0.00 | 0.00 | 31 | 1009.6 |
| 20260503193021 | 14 | 321 | 6.4 | 32.2 | 0.00 | 0.00 | 0.00 | 30 | 1009.6 |
| 20260503192035 | 14 | 306 | 6.4 | 22.5 | 0.00 | 0.00 | 0.00 | 29 | 1009.5 |
| 20260503191057 | 14 | 245 | 9.7 | 41.8 | 0.00 | 0.00 | 0.00 | 32 | 1009.5 |
| 20260503190054 | 14 | 259 | 6.4 | 41.8 | 0.00 | 0.00 | 0.00 | 29 | 1009.5 |
| 20260503181621 | 12 | 246 | 6.4 | 41.8 | 0.00 | 0.00 | 0.00 | 33 | 1009.6 |
| 20260503180608 | 12 | 258 | 6.4 | 22.5 | 0.00 | 0.00 | 0.00 | 34 | 1009.5 |
| 20260503175605 | 12 | 195 | 6.4 | 30.6 | 0.00 | 0.00 | 0.00 | 31 | 1009.4 |